Temperature
21 20 20 19 19 19 21 22 22 23 23 23 23 23 22 21 21 21 21 21 21 20 20 20 20 20 20 20 20 20 20 20 19 19 19 19 19 19 19 18 18 18 18 18 18 18 18 18 18
21 20 20 19 19 20 21 22 22 23 23 23 23 23 22 21 21 21 20 20 21 21 20 20 20 20 20 20 20 20 20 20 19 19 19 19 19 19 19 18 18 18 18 18 18 18 18 18 18
21 20 19 18 19 20 22 23 23 24 24 23 23 22 22 21 21 21 21 21 21 21 20 20 20 20 20 20 20 20 20 20 19 19 19 19 19 19 18 18 18 18 18 18 18 18 18 17 17
21 20 19 18 20 21 23 24 24 24 24 23 23 22 21 21 21 21 21 21 21 20 20 20 20 20 20 20 20 20 20 20 19 19 19 19 19 19 18 18 18 18 18 18 18 18 17 17 17
21 20 18 18 20 21 23 24 24 24 23 23 22 21 21 21 21 22 21 21 21 20 20 20 20 20 20 20 20 20 20 20 19 19 19 19 19 18 18 18 18 18 18 18 18 17 17 17 17
21 18 18 19 21 23 24 25 24 24 23 23 22 21 20 21 21 22 21 21 21 20 20 20 20 20 20 20 20 20 19 19 19 19 19 19 18 18 18 18 18 18 18 18 17 17 17 17 17
20 17 19 20 21 23 25 25 24 23 23 23 23 20 19 20 21 21 21 21 20 20 20 20 20 19 19 19 19 19 19 19 19 19 19 18 18 18 18 18 18 18 18 17 17 17 17 17 17
22 18 20 20 22 24 25 25 25 24 23 23 23 20 20 20 20 21 20 20 20 20 20 20 19 19 19 19 19 19 19 19 19 19 18 18 18 18 18 18 18 18 18 17 17 17 17 17 17
22 18 19 21 22 24 25 24 24 24 23 22 22 22 22 21 20 20 19 19 19 19 19 19 19 19 19 19 19 19 19 19 18 18 18 18 18 18 18 17 17 18 17 17 17 17 17 17 17
21 18 20 22 23 24 25 24 24 23 22 21 21 21 22 21 20 19 19 19 19 19 19 19 19 19 19 19 19 18 19 19 18 18 18 18 18 17 17 17 17 17 17 17 17 17 17 17 17
20 20 22 23 25 25 24 24 24 22 21 22 22 21 21 20 19 19 19 19 19 19 19 19 19 19 19 19 19 18 18 18 18 18 18 18 17 17 17 17 17 17 17 17 17 17 17 17 17
21 22 23 25 26 25 25 24 23 23 23 24 24 23 21 20 20 19 19 19 19 19 19 19 19 19 19 19 18 18 18 18 18 18 18 17 17 17 17 17 17 17 17 17 17 17 17 17 17
22 23 25 25 25 25 24 23 23 22 23 24 23 22 21 20 19 19 19 19 19 19 18 18 18 19 18 18 18 18 18 18 18 18 17 17 17 17 17 17 17 17 17 17 17 17 17 17 17
24 24 24 25 25 25 23 23 22 22 23 22 22 21 21 20 19 19 19 18 18 18 18 18 18 18 18 18 18 18 18 18 18 17 17 17 17 17 17 17 17 17 17 16 16 16 16 16 16
24 23 23 24 24 24 24 23 22 22 21 21 20 20 20 19 19 19 19 19 19 18 18 18 18 18 18 18 18 18 18 18 17 17 17 17 17 17 17 17 17 16 16 16 16 16 16 16 16
23 22 23 23 24 24 24 23 22 22 20 19 19 19 19 19 19 19 19 19 18 18 18 18 18 18 18 18 18 18 18 17 17 17 17 17 17 17 16 16 16 16 16 16 16 16 16 16 16
21 21 22 23 24 24 23 22 21 21 20 19 19 18 18 18 18 18 19 18 18 18 18 18 18 18 18 18 18 18 17 17 17 17 17 17 17 16 16 16 16 16 16 16 16 16 16 16 16
22 22 22 22 23 23 22 21 20 20 20 19 19 18 18 18 18 18 18 18 18 18 18 18 17 18 18 18 17 17 17 17 17 17 17 17 17 16 16 16 16 16 16 16 16 16 16 16 16
22 22 21 22 23 23 22 20 20 19 19 19 18 18 18 18 18 18 18 18 17 17 17 17 17 17 17 17 17 17 17 17 17 17 17 16 16 16 16 16 16 16 16 15 15 15 15 16 16
22 22 22 22 23 23 21 20 20 19 19 19 19 19 19 18 18 18 18 17 17 17 17 17 18 17 18 17 18 17 17 17 17 17 17 16 16 16 16 16 16 15 15 15 15 15 15 15 16
22 22 22 22 22 21 21 20 20 20 19 19 19 19 19 18 18 18 18 17 17 17 17 17 17 17 17 17 17 17 17 17 17 16 16 16 16 16 16 16 15 15 15 15 15 15 15 15 15
22 23 23 23 21 20 20 20 20 19 18 18 18 18 18 18 18 18 18 18 18 17 17 17 17 17 17 17 17 17 17 17 17 17 17 16 16 16 16 16 15 15 15 15 15 15 15 15 15
23 23 22 22 20 19 19 19 19 18 19 18 18 18 19 19 18 18 18 18 18 18 17 17 17 17 17 17 17 17 17 17 17 17 17 16 16 16 16 15 15 15 15 15 15 15 15 15 15
23 22 20 17 18 19 19 19 19 18 19 19 18 19 19 19 18 18 18 18 18 18 17 17 17 17 17 17 17 17 17 17 17 17 17 16 16 16 16 15 15 15 15 15 15 15 15 15 15
23 20 19 20 18 18 18 18 18 19 19 19 18 19 19 19 19 18 18 18 17 18 17 17 17 17 17 17 17 17 17 17 17 17 17 17 16 16 16 16 15 15 15 15 15 15 15 15 15
21 20 19 20 19 18 18 18 19 20 19 19 19 19 19 19 19 19 18 18 18 18 17 17 17 17 17 17 17 17 17 17 17 17 17 17 16 16 16 16 15 15 15 15 15 15 15 15 15
21 20 19 18 18 18 18 18 19 19 19 18 18 18 18 19 19 19 19 18 18 18 18 18 18 17 17 17 17 17 17 17 17 17 17 16 16 16 16 16 15 15 15 15 15 15 15 15 15
22 19 17 17 18 19 19 19 19 20 19 18 18 18 18 19 19 19 19 19 19 19 18 18 18 18 18 17 17 17 17 17 17 17 16 16 16 16 16 16 16 15 15 15 15 15 14 14 14
21 19 17 16 17 18 19 19 19 19 19 18 18 18 18 19 19 19 19 19 19 19 18 18 18 18 18 18 18 17 17 17 17 17 17 16 16 16 16 16 16 15 15 15 15 15 15 14 14
21 19 17 18 18 16 17 19 20 18 18 18 18 18 19 19 19 19 19 19 19 19 19 18 18 18 18 18 18 17 17 17 17 17 17 17 16 16 16 16 16 16 15 15 15 15 15 15 15
Wind_Speed
5 4 2 1 3 3 2 3 2 2 2 1 3 3 4 5 4 3 2 13 18 17 18 21 21 20 20 20 19 19 19 19 19 18 18 17 17 16 15 15 14 14 14 14 15 15 15 15 15
4 3 1 2 3 2 4 3 4 4 2 2 3 2 2 2 3 6 6 12 18 17 17 19 22 21 20 20 19 19 18 18 18 17 17 16 16 15 15 15 14 14 14 14 15 15 15 14 14
3 2 3 3 2 3 4 3 5 2 5 3 2 2 1 2 5 7 7 15 16 15 17 20 23 21 20 20 19 18 18 18 17 16 16 16 15 15 14 14 14 14 14 14 14 14 14 13 13
3 3 4 4 3 5 5 4 4 4 3 3 3 2 1 1 5 7 14 17 17 14 16 21 23 21 20 20 19 18 18 17 16 15 15 14 14 13 13 13 13 13 13 13 13 13 12 12 11
3 4 4 2 5 6 5 6 7 7 5 4 4 3 1 3 8 14 16 17 16 13 14 20 22 21 21 20 19 18 17 17 16 15 14 13 13 12 12 12 12 12 12 12 12 11 10 10 9
4 4 3 3 6 5 4 4 6 5 3 4 5 4 0 3 11 15 15 14 14 14 12 17 21 21 20 20 19 18 17 16 16 15 14 13 12 11 11 12 11 11 11 10 10 9 8 8 7
4 4 2 4 5 5 2 2 5 5 4 5 6 5 1 4 8 13 13 12 12 12 11 12 17 19 20 20 19 18 17 16 15 14 13 12 12 11 10 11 10 10 9 8 8 8 7 7 6
5 4 1 3 4 5 1 2 1 4 4 4 5 6 5 7 11 11 11 11 11 10 10 9 12 15 15 17 18 18 17 16 15 14 13 12 12 11 10 9 9 9 8 7 7 6 6 6 6
4 3 3 5 5 4 1 1 1 2 4 3 1 2 5 16 16 14 13 10 11 11 9 8 8 10 12 13 16 17 16 15 14 13 13 11 9 9 8 7 8 8 7 6 5 5 5 5 5
4 3 7 6 5 5 4 2 4 3 3 2 2 4 13 18 18 18 17 17 15 14 12 9 9 9 11 12 12 12 12 12 11 10 10 9 8 7 6 6 7 7 6 5 4 4 5 5 4
7 7 6 7 7 6 4 3 5 8 5 8 8 13 18 17 16 17 17 16 16 15 14 11 10 9 9 7 9 8 9 9 9 9 10 9 7 5 4 4 4 4 4 4 4 5 5 4 3
6 8 7 7 4 3 4 4 4 6 7 6 11 18 20 19 18 17 16 15 13 14 13 12 10 8 7 6 7 7 7 7 7 8 10 8 5 4 3 3 3 3 3 3 3 3 4 3 3
6 7 6 8 7 4 3 4 4 4 3 6 12 16 17 17 14 11 9 10 11 13 13 12 11 10 7 6 6 7 6 7 7 8 9 9 6 4 4 3 3 3 3 3 2 2 2 2 2
5 6 7 6 4 2 3 2 3 4 6 10 12 13 14 13 12 10 10 10 12 13 13 12 12 10 8 6 5 5 6 7 8 8 9 10 8 6 4 3 3 3 3 3 2 2 2 2 1
4 6 8 4 1 1 3 1 4 5 9 10 11 11 11 10 10 12 12 11 12 12 12 12 12 10 9 8 7 6 7 8 7 7 9 9 9 8 6 4 3 3 4 4 2 2 2 2 1
4 4 5 6 2 0 3 6 4 5 9 9 9 9 9 7 8 9 10 9 10 11 12 12 13 11 10 8 7 6 7 8 7 8 8 9 9 9 7 4 3 4 5 4 2 2 2 2 2
6 4 5 8 2 0 1 6 4 5 8 8 8 8 7 6 6 7 9 10 10 12 12 12 10 11 10 8 6 6 6 6 7 8 8 8 9 9 8 5 4 6 4 3 2 2 2 2 1
3 4 6 7 5 2 3 6 4 4 7 7 7 7 7 8 8 8 8 8 9 10 12 12 10 10 9 7 6 5 4 4 6 6 8 9 9 9 8 6 5 6 4 3 2 3 2 2 2
4 5 9 10 6 2 5 5 4 3 5 5 6 6 7 8 7 7 7 8 9 9 12 13 12 10 9 7 6 6 5 4 4 5 9 10 10 10 8 5 5 4 4 3 4 3 3 2 1
5 6 8 8 4 0 3 5 3 3 5 6 7 8 8 7 6 8 8 8 10 11 12 13 12 10 10 7 6 4 4 3 3 3 6 9 10 10 9 7 5 4 4 4 3 3 3 2 2
6 6 7 7 4 3 3 6 3 2 1 2 4 5 6 9 9 9 9 9 10 11 12 12 12 11 9 8 6 5 4 4 3 3 3 5 9 9 9 9 7 5 4 4 3 3 4 3 2
6 7 6 4 1 4 2 4 6 3 3 4 5 5 6 8 9 9 10 10 11 11 10 10 11 11 10 10 9 9 6 5 5 4 4 4 7 8 9 9 8 6 4 4 4 3 3 4 2
7 1 0 0 2 1 2 1 8 2 4 6 5 6 6 7 10 11 11 10 10 10 10 10 10 10 9 10 11 9 6 4 4 4 6 5 4 6 8 9 8 6 5 5 4 4 3 3 3
4 5 6 6 5 1 3 2 7 5 6 5 5 5 5 7 8 9 9 8 9 10 10 11 11 10 9 10 10 10 9 8 7 6 6 5 4 3 5 7 7 6 5 5 5 4 5 3 3
4 5 4 5 4 6 2 3 9 7 5 5 6 5 5 6 7 9 10 10 11 11 11 11 12 10 10 10 10 10 10 10 10 8 8 7 5 4 6 6 6 5 6 6 5 5 4 4 4
6 9 7 5 5 6 2 6 8 4 3 3 4 4 4 5 6 8 10 10 11 12 12 12 12 11 11 11 10 9 9 8 7 8 8 8 7 6 6 7 7 7 7 7 6 4 4 4 4
6 5 7 7 3 2 6 7 8 2 2 2 2 3 5 6 6 7 9 10 11 12 12 13 13 11 11 11 10 9 9 9 8 8 7 6 6 6 7 8 7 7 7 7 7 4 5 5 4
5 8 6 6 5 4 6 6 5 6 4 4 4 4 5 5 6 6 7 9 9 9 9 9 10 11 9 10 10 9 9 9 8 8 8 7 7 6 8 8 8 8 7 7 7 5 5 5 4
4 5 5 5 5 6 4 8 6 7 6 6 5 5 6 6 7 7 7 7 7 7 8 9 9 8 9 9 9 9 9 9 8 8 9 8 7 8 8 8 9 9 9 8 7 7 7 7 6
4 7 8 6 5 5 4 8 4 4 4 5 5 4 4 5 6 6 6 7 7 8 8 8 9 9 9 9 9 9 8 8 9 9 9 8 8 8 8 8 8 9 9 9 9 9 9 9 8
Wind_Direction
176 156 149 114 56 43 281 250 220 225 248 235 149 150 158 162 179 210 117 142 139 145 152 152 148 143 139 135 132 130 128 127 126 127 128 128 127 126 125 123 121 119 117 115 113 112 111 111 112
140 152 126 66 77 21 286 228 210 212 181 102 91 100 116 165 106 117 131 143 141 145 149 152 151 147 143 140 136 134 132 130 129 129 130 130 129 128 127 125 123 120 119 116 115 115 114 114 114
146 156 88 69 106 203 257 225 204 186 152 143 115 72 151 165 141 148 151 143 140 144 148 155 153 150 147 143 140 138 136 134 133 133 132 133 131 129 128 127 125 122 120 118 117 116 116 115 115
121 64 60 63 263 242 236 233 185 158 162 165 144 125 89 60 150 149 143 144 142 144 149 158 155 153 150 147 145 143 141 139 138 137 135 134 134 133 131 129 127 124 122 119 118 117 117 116 115
70 81 55 357 266 257 245 222 183 176 178 157 147 147 82 18 114 134 143 146 146 146 152 159 158 156 153 151 150 148 146 144 142 141 140 138 137 135 135 131 129 127 125 122 120 119 117 115 115
63 70 73 288 275 270 251 202 165 172 163 150 152 145 69 88 128 141 144 145 147 148 149 157 160 159 157 155 154 152 151 150 147 145 144 143 141 139 137 137 134 130 128 125 122 119 116 111 110
112 107 182 247 280 288 266 156 159 162 170 179 156 137 149 142 142 142 141 140 145 149 150 156 161 162 161 159 158 156 155 154 152 150 150 149 146 145 144 141 139 136 133 129 125 121 114 108 106
137 109 264 257 258 275 297 82 145 148 175 139 137 159 192 169 142 133 132 136 145 151 153 153 158 160 160 161 160 158 158 158 157 155 154 153 152 151 150 145 145 143 141 136 130 122 113 105 102
118 81 243 238 230 255 201 103 133 115 119 121 148 182 163 141 142 140 141 144 155 160 159 156 154 152 153 157 164 163 162 162 161 159 160 155 147 148 150 153 152 150 147 142 135 123 107 96 91
124 175 232 225 219 235 247 219 178 142 144 183 128 98 131 146 155 159 164 166 169 171 170 163 156 153 153 162 163 161 160 159 157 158 152 142 139 148 155 165 160 155 151 145 135 120 98 82 73
176 210 241 247 236 236 236 210 168 153 196 211 186 156 151 160 168 173 175 174 174 174 173 168 161 156 158 154 152 152 149 149 151 154 145 141 139 144 145 153 150 142 136 109 102 91 81 81 82
206 247 243 266 256 226 209 175 165 187 219 202 170 158 161 170 178 182 181 178 173 173 174 164 162 156 156 149 151 150 149 151 153 157 153 147 141 141 140 138 129 117 112 102 91 88 86 81 89
227 265 261 261 274 228 175 177 173 215 214 136 143 155 169 178 180 180 180 174 171 174 170 169 168 166 155 144 155 160 157 158 160 161 163 161 155 155 149 139 130 125 127 122 104 94 91 76 75
254 268 288 289 276 231 161 191 155 213 149 136 148 167 177 179 175 171 174 177 181 177 174 173 174 168 157 156 160 158 161 159 161 165 170 171 167 162 154 144 142 143 144 134 121 108 95 73 65
300 308 317 303 282 240 129 290 223 178 147 151 164 172 175 177 176 183 181 182 185 179 175 178 176 167 166 162 165 163 163 161 163 167 169 169 171 169 160 152 156 161 151 137 116 90 78 76 66
356 7 331 306 308 243 137 264 259 159 156 162 170 173 174 179 183 183 179 182 182 175 175 180 181 173 171 163 159 156 161 159 162 164 165 166 171 171 160 158 159 157 146 135 119 94 80 65 65
24 356 305 307 302 90 189 258 265 164 166 172 173 171 173 177 191 191 186 184 180 177 173 177 174 172 169 160 154 149 153 156 159 163 163 163 165 166 159 154 150 146 138 132 135 92 97 91 73
288 300 295 292 290 312 270 262 268 186 184 184 175 171 179 189 199 194 190 183 180 180 173 175 173 172 161 151 140 133 137 145 151 163 163 161 160 159 151 141 140 141 130 123 115 103 77 82 82
238 265 281 280 288 280 264 269 255 204 187 187 186 184 194 198 192 180 185 180 176 179 176 175 175 171 161 159 157 155 160 156 156 165 162 160 159 157 147 137 135 139 140 143 135 114 91 63 63
230 274 283 295 343 5 285 285 253 209 205 202 199 200 202 190 179 178 179 179 180 181 180 176 175 171 165 167 158 151 141 144 146 150 153 159 158 158 154 145 146 144 134 128 130 128 117 74 59
252 233 255 271 328 23 356 320 285 273 243 227 224 213 200 193 190 186 182 183 184 182 182 180 175 170 163 155 137 127 111 100 116 141 151 162 162 162 156 155 150 148 146 150 148 144 136 129 71
265 245 234 255 300 300 28 290 289 266 282 250 239 225 212 198 191 189 186 187 189 186 180 172 168 165 162 159 161 164 163 163 176 167 161 157 165 163 161 158 155 152 152 154 160 147 140 136 135
226 276 64 297 153 337 357 211 288 305 266 256 244 232 220 198 190 189 189 191 186 179 172 168 163 165 165 169 171 170 163 153 144 142 150 158 160 166 167 162 159 157 159 161 153 144 145 142 149
180 68 52 49 71 318 265 193 280 248 234 246 235 234 218 198 192 189 183 179 176 170 168 168 168 170 169 169 170 171 166 158 155 159 165 166 162 167 174 168 166 166 163 164 160 156 152 148 143
125 94 21 353 0 258 270 229 252 250 229 215 219 226 218 195 185 181 175 176 175 173 172 173 171 176 173 173 175 178 174 170 174 174 175 172 172 181 188 177 173 173 175 171 162 158 162 161 156
181 148 162 210 237 278 299 246 256 248 225 206 203 207 195 179 179 181 178 177 178 177 176 175 177 181 178 179 180 178 174 177 184 182 177 182 188 190 182 181 180 180 176 174 167 167 175 171 170
149 176 163 141 162 268 280 281 300 238 178 168 173 172 174 173 177 182 177 175 177 179 180 180 178 179 181 182 177 178 180 184 186 182 179 184 188 188 182 182 182 183 181 176 169 177 181 173 179
148 142 107 129 156 249 285 278 256 259 225 204 191 192 186 173 174 173 172 176 179 179 174 171 173 179 179 178 180 186 187 189 184 179 184 188 193 189 180 185 188 188 187 182 177 178 182 178 187
121 118 120 128 156 166 247 271 232 226 213 198 200 193 184 180 180 179 172 170 167 162 163 169 172 171 175 180 182 183 187 187 183 187 193 194 193 191 192 192 191 192 192 188 187 192 186 190 197
178 171 150 159 209 183 191 263 280 214 210 182 187 190 182 175 173 167 158 155 156 162 166 174 176 179 184 182 182 188 186 183 187 196 197 192 195 195 196 193 194 199 198 193 195 200 198 199 204
Height
1500 1500 1501 1503 1505 1511 1510 1502 1496 1494 1492 1491 1491 1492 1493 1495 1499 1503 1496 1497 1502 1506 1511 1516 1519 1522 1525 1527 1529 1530 1532 1533 1535 1536 1538 1539 1541 1542 1544 1545 1546 1547 1548 1548 1549 1550 1551 1551 1552
1500 1500 1502 1503 1509 1518 1510 1498 1495 1491 1490 1491 1491 1492 1492 1493 1493 1493 1494 1497 1503 1507 1512 1516 1520 1523 1526 1528 1530 1531 1533 1535 1536 1538 1540 1541 1543 1544 1545 1547 1548 1549 1550 1550 1551 1552 1553 1553 1554
1500 1501 1503 1504 1510 1513 1505 1493 1491 1489 1489 1490 1491 1492 1493 1492 1492 1492 1494 1498 1504 1508 1512 1517 1520 1524 1526 1529 1531 1533 1534 1536 1538 1540 1542 1543 1545 1546 1547 1549 1550 1551 1551 1552 1553 1554 1555 1556 1557
1500 1502 1503 1508 1509 1501 1494 1489 1487 1488 1490 1490 1491 1492 1492 1493 1492 1493 1495 1499 1504 1509 1513 1517 1521 1524 1527 1530 1532 1534 1535 1537 1539 1541 1543 1545 1546 1548 1549 1550 1551 1552 1553 1554 1555 1556 1557 1558 1559
1500 1501 1507 1513 1507 1495 1487 1485 1485 1487 1488 1489 1490 1491 1492 1492 1492 1494 1497 1501 1505 1509 1514 1518 1521 1525 1527 1530 1532 1535 1537 1539 1541 1543 1545 1546 1548 1550 1551 1552 1553 1554 1555 1556 1557 1558 1559 1560 1561
1501 1502 1514 1516 1504 1491 1484 1482 1484 1486 1487 1488 1489 1490 1491 1492 1493 1495 1499 1502 1506 1510 1514 1518 1522 1525 1528 1530 1533 1535 1538 1540 1542 1544 1546 1548 1549 1551 1553 1554 1555 1556 1557 1558 1559 1560 1561 1562 1563
1501 1506 1511 1508 1502 1492 1484 1482 1483 1485 1486 1487 1488 1490 1491 1492 1494 1496 1499 1503 1507 1511 1515 1519 1522 1526 1529 1531 1533 1536 1538 1541 1543 1545 1547 1549 1551 1553 1554 1555 1556 1558 1559 1560 1561 1562 1563 1564 1565
1499 1504 1507 1506 1501 1492 1484 1483 1484 1485 1486 1487 1488 1489 1489 1491 1493 1497 1500 1504 1508 1511 1515 1518 1522 1525 1528 1531 1534 1536 1539 1542 1544 1546 1548 1550 1552 1554 1555 1557 1558 1559 1560 1561 1562 1563 1564 1565 1566
1499 1507 1511 1502 1497 1489 1483 1484 1484 1484 1485 1486 1487 1487 1488 1490 1492 1496 1500 1503 1507 1511 1514 1518 1522 1525 1528 1531 1534 1537 1539 1542 1545 1547 1549 1551 1552 1554 1556 1558 1559 1560 1561 1562 1563 1564 1565 1566 1567
1498 1507 1501 1491 1487 1484 1482 1482 1483 1484 1485 1486 1486 1486 1487 1489 1491 1494 1496 1500 1504 1508 1512 1517 1521 1524 1528 1531 1534 1537 1540 1542 1545 1547 1549 1551 1553 1555 1557 1559 1560 1561 1562 1563 1564 1565 1566 1567 1568
1495 1496 1488 1484 1482 1481 1480 1480 1481 1483 1485 1482 1481 1482 1485 1488 1490 1492 1495 1498 1501 1506 1510 1515 1520 1524 1527 1530 1534 1537 1540 1542 1545 1547 1550 1552 1554 1556 1558 1559 1561 1562 1563 1564 1564 1565 1566 1567 1568
1492 1487 1485 1481 1479 1479 1478 1478 1480 1480 1479 1478 1479 1480 1482 1485 1488 1490 1493 1497 1501 1505 1508 1512 1518 1523 1526 1530 1534 1537 1540 1542 1545 1547 1550 1552 1554 1556 1558 1560 1561 1562 1563 1564 1565 1565 1566 1567 1568
1488 1484 1481 1478 1477 1476 1476 1477 1478 1478 1476 1477 1478 1480 1482 1484 1487 1491 1495 1498 1501 1503 1507 1512 1517 1522 1525 1529 1533 1537 1539 1542 1545 1548 1550 1552 1554 1556 1558 1560 1561 1562 1563 1564 1565 1565 1566 1567 1568
1484 1482 1479 1476 1474 1474 1475 1475 1476 1475 1475 1476 1477 1479 1481 1483 1487 1490 1493 1496 1499 1502 1507 1511 1516 1520 1525 1528 1533 1536 1540 1543 1545 1548 1550 1552 1554 1556 1558 1560 1561 1562 1563 1564 1565 1566 1566 1567 1568
1483 1482 1478 1475 1473 1473 1475 1478 1474 1474 1475 1475 1476 1478 1481 1483 1485 1488 1490 1494 1497 1501 1506 1510 1515 1519 1524 1528 1532 1536 1539 1542 1545 1548 1550 1552 1554 1556 1558 1559 1561 1562 1563 1564 1565 1565 1566 1567 1568
1483 1487 1489 1478 1474 1473 1478 1482 1472 1472 1474 1475 1476 1477 1480 1482 1484 1486 1489 1491 1495 1499 1503 1508 1514 1518 1522 1527 1531 1535 1539 1542 1545 1548 1550 1552 1554 1556 1558 1559 1561 1562 1563 1563 1564 1565 1566 1567 1568
1493 1497 1493 1483 1474 1473 1477 1479 1472 1472 1472 1474 1475 1477 1480 1482 1483 1485 1487 1489 1492 1496 1501 1506 1512 1516 1521 1526 1530 1534 1538 1541 1544 1547 1549 1552 1554 1556 1557 1559 1560 1561 1562 1563 1564 1565 1566 1567 1568
1498 1496 1493 1488 1476 1474 1477 1477 1472 1472 1472 1473 1475 1477 1479 1480 1482 1484 1486 1488 1491 1494 1498 1504 1509 1515 1520 1525 1529 1533 1537 1540 1543 1546 1549 1551 1553 1555 1556 1558 1559 1561 1562 1563 1564 1565 1566 1567 1567
1489 1492 1493 1483 1473 1475 1476 1476 1473 1471 1472 1473 1474 1475 1477 1478 1480 1482 1484 1486 1489 1492 1495 1500 1506 1512 1518 1522 1527 1531 1535 1539 1542 1546 1548 1550 1552 1554 1556 1557 1558 1560 1561 1563 1564 1564 1565 1566 1567
1487 1491 1489 1479 1473 1475 1477 1476 1471 1471 1471 1471 1472 1473 1474 1476 1478 1480 1482 1484 1487 1489 1493 1498 1503 1510 1515 1521 1526 1530 1534 1538 1541 1545 1547 1549 1551 1553 1555 1556 1558 1559 1560 1562 1563 1564 1565 1565 1566
1485 1488 1485 1483 1477 1476 1479 1480 1474 1471 1470 1470 1471 1471 1472 1473 1475 1477 1479 1481 1484 1487 1491 1495 1501 1508 1513 1519 1525 1529 1533 1536 1540 1543 1545 1548 1550 1552 1554 1555 1557 1558 1560 1561 1562 1563 1564 1565 1566
1486 1475 1476 1478 1485 1491 1487 1497 1479 1473 1471 1469 1469 1469 1470 1471 1473 1475 1477 1479 1482 1486 1490 1495 1500 1506 1512 1517 1522 1526 1530 1533 1538 1541 1544 1547 1549 1551 1553 1554 1556 1557 1558 1560 1561 1562 1563 1564 1565
1474 1470 1474 1478 1485 1492 1491 1497 1487 1475 1473 1468 1467 1466 1467 1468 1470 1472 1475 1478 1480 1484 1488 1493 1499 1505 1510 1516 1521 1525 1529 1533 1537 1540 1543 1546 1548 1550 1551 1553 1555 1556 1557 1559 1560 1561 1562 1563 1564
1467 1474 1480 1488 1494 1503 1493 1497 1491 1478 1470 1466 1464 1464 1464 1466 1468 1471 1474 1477 1479 1483 1487 1492 1498 1504 1509 1514 1519 1523 1527 1531 1535 1538 1541 1544 1546 1548 1550 1552 1553 1555 1556 1557 1558 1560 1561 1562 1563
1469 1486 1504 1505 1512 1507 1493 1495 1487 1466 1462 1461 1461 1462 1462 1464 1466 1469 1472 1474 1477 1481 1486 1491 1496 1502 1507 1512 1516 1521 1526 1530 1533 1536 1539 1542 1544 1546 1548 1550 1552 1553 1554 1556 1557 1558 1559 1560 1561
1470 1480 1502 1511 1513 1505 1494 1494 1474 1460 1458 1459 1459 1460 1461 1462 1464 1467 1470 1473 1476 1481 1486 1490 1495 1500 1505 1510 1514 1519 1524 1527 1531 1534 1537 1540 1542 1545 1547 1548 1550 1552 1553 1554 1555 1556 1557 1558 1559
1470 1477 1477 1495 1501 1505 1498 1485 1468 1457 1458 1458 1458 1459 1459 1461 1463 1466 1469 1473 1477 1481 1485 1489 1494 1499 1504 1508 1513 1517 1521 1524 1528 1532 1535 1538 1540 1543 1545 1546 1548 1550 1551 1552 1553 1554 1555 1556 1557
1460 1469 1485 1495 1506 1508 1497 1488 1479 1461 1459 1458 1458 1458 1459 1461 1463 1466 1469 1472 1476 1480 1484 1489 1493 1497 1502 1507 1511 1515 1518 1522 1526 1529 1532 1535 1538 1540 1542 1544 1546 1547 1549 1550 1551 1552 1553 1554 1555
1466 1472 1479 1491 1494 1504 1504 1490 1460 1456 1454 1455 1456 1457 1458 1460 1462 1465 1468 1471 1476 1479 1483 1487 1492 1496 1500 1504 1508 1512 1516 1519 1523 1526 1529 1532 1535 1537 1540 1542 1543 1545 1546 1547 1548 1549 1550 1551 1552
1458 1465 1476 1486 1490 1494 1497 1485 1452 1451 1451 1452 1455 1456 1457 1459 1461 1464 1467 1470 1474 1478 1482 1486 1490 1494 1498 1502 1505 1509 1513 1516 1520 1523 1526 1529 1532 1534 1537 1539 1541 1542 1544 1545 1546 1547 1548 1548 1549